This is the latest recevied weather packets stored in our database for station/object IN3XSV-13. If no packets are shown the sender has not sent any weather packets the latest 10 day(s).
| Time | Temp. | Humidity | Pressure | Rain* | Wind** | Luminosity | Snow |
|---|---|---|---|---|---|---|---|
| 1787488976 | 28.89° C | 46% | 1012.3 hPa | 0 mm | - | - | - |
| 1787488676 | 28.33° C | 47% | 1012.3 hPa | 0 mm | - | - | - |
| 1787488376 | 27.78° C | 47% | 1012.4 hPa | 0 mm | - | - | - |
| 1787488076 | 27.78° C | 48% | 1012.4 hPa | 0 mm | - | - | - |
| 1787487776 | 27.78° C | 48% | 1012.3 hPa | 0 mm | - | - | - |
| 1787487476 | 28.33° C | 46% | 1012.4 hPa | 0 mm | - | - | - |
| 1787487176 | 28.89° C | 48% | 1012.5 hPa | 0 mm | - | - | - |
| 1787486876 | 28.33° C | 48% | 1012.3 hPa | 0 mm | - | - | - |
| 1787486576 | 28.89° C | 46% | 1012.3 hPa | 0 mm | - | - | - |
| 1787486276 | 29.44° C | 45% | 1012.4 hPa | 0 mm | - | - | - |
| 1787485976 | 30° C | 44% | 1012.4 hPa | 0 mm | - | - | - |
| 1787485676 | 30° C | 44% | 1012.5 hPa | 0 mm | - | - | - |
| 1787485376 | 30° C | 45% | 1012.4 hPa | 0 mm | - | - | - |
| 1787485076 | 30.56° C | 45% | 1012.4 hPa | 0 mm | - | - | - |
| 1787484776 | 30.56° C | 45% | 1012.4 hPa | 0 mm | - | - | - |
| 1787484476 | 29.44° C | 46% | 1012.4 hPa | 0 mm | - | - | - |
| 1787484176 | 28.33° C | 47% | 1012.5 hPa | 0 mm | - | - | - |
| 1787483876 | 28.33° C | 48% | 1012.6 hPa | 0 mm | - | - | - |
| 1787483576 | 27.78° C | 49% | 1012.7 hPa | 0 mm | - | - | - |
| 1787483276 | 26.67° C | 49% | 1012.8 hPa | 0 mm | - | - | - |
| 1787482976 | 26.67° C | 50% | 1012.8 hPa | 0 mm | - | - | - |
| 1787482676 | 26.11° C | 52% | 1013 hPa | 0 mm | - | - | - |
| 1787482376 | 26.11° C | 51% | 1012.9 hPa | 0 mm | - | - | - |
| 1787482076 | 25.56° C | 53% | 1013 hPa | 0 mm | - | - | - |
| 1787481776 | 25° C | 54% | 1013.2 hPa | 0 mm | - | - | - |
* Rain latest hour (hover to see other rain measurements)
** Current wind speed in m/s (hover to see current wind gust speed)